Regional Weather Roundup
Issued by NWS

Home | Current Version | Previous Version | Graphics & Text | Print | Product List | Glossary On
Versions: 1 2 3 4 5 6 7 8 9 10 11 12 13 14 15 16 17 18 19 20 21 22 23 24 25 26 27 28 29 30 31 32 33 34 35 36 37 38 39 40 41 42 43 44 45 46 47 48 49 50
456
ASUS43 KDMX 040503
RWRIA

WEATHER ROUNDUP FOR IOWA
NATIONAL WEATHER SERVICE DES MOINES IA
1200 AM CDT WED MAY 04 2016

NOTE: "FAIR" INDICATES FEW OR NO CLOUDS BELOW 12,000 FEET WITH NO
SIGNIFICANT WEATHER AND/OR OBSTRUCTIONS TO VISIBILITY.

* - THESE STATIONS ARE NOT NWS STATIONS...THUS NOT UNDER NWS
QUALITY CONTROL.  THEY ALSO DO NOT REPORT WEATHER SUCH
AS PRECIPITATION OR FOG.

IAZ001>003-012>014-020>022-031>034-043>046-040600-
   NORTHWEST IOWA

CITY           SKY/WX    TMP DP  RH WIND       PRES   REMARKS
CARROLL *      MOCLDY    59  43  55 NW16      29.82R
CHEROKEE *     CLEAR     53  35  50 N9        29.86R
DENISON *      MOCLDY    59  45  58 NW10G17   29.83R
LE MARS *      CLEAR     54  36  50 N9        29.89R
ORANGE CITY *  CLEAR     55  36  47 N8G16     29.88R
SHELDON *      CLEAR     50  36  57 N13       29.87R
SIOUX CITY     CLEAR     56  37  49 N8        29.89R
SPENCER        CLEAR     54  33  45 NW15      29.84R
STORM LAKE *   CLEAR     55  36  47 N15       29.85S
$$

IAZ055>058-069>071-079>083-090>094-040600-
   SOUTHWEST IOWA

CITY           SKY/WX    TMP DP  RH WIND       PRES   REMARKS
ATLANTIC *     MOCLDY    57  45  62 W7        29.82S
AUDUBON *      PTCLDY    59  46  63 NW9       29.84R
CLARINDA *       N/A    N/A N/A N/A MISG        N/A
COUNCIL BLFS * PTCLDY    59  45  58 W9        29.84F
CRESTON *      MOCLDY    55  45  67 W10       29.83S
HARLAN  *      CLEAR     57  46  67 NW16      29.87R
LAMONI         MOCLDY    57  44  62 W15       29.81F
RED OAK *      MOCLDY    57  46  67 W7        29.84S
SHENANDOAH *   MOCLDY    55  48  76 SW6       29.86S
$$

IAZ047>049-059>061-072>074-084-040600-
   CENTRAL IOWA

CITY           SKY/WX    TMP DP  RH WIND       PRES   REMARKS
AMES           CLOUDY    61  44  53 NW17      29.75S
ANKENY *       CLOUDY    61  46  59 W13G20    29.76S
BOONE *        CLOUDY    59  43  55 NW15      29.76F
CHARITON *     CLOUDY    57  45  62 W10G16    29.78S
DES MOINES     CLOUDY    60  45  57 W10       29.76F
GRINNELL*      CLOUDY    55  46  71 SW15      29.71F
KNOXVILLE *    CLOUDY    57  45  62 W10       29.74F
MARSHALLTOWN   CLEAR     59  45  59 W17       29.70F
NEWTON *       CLOUDY    57  46  67 W10       29.73F
PELLA *        CLOUDY    58  46  63 W9        29.75F
PERRY *        CLOUDY    61  46  59 NW13      29.79S
$$

IAZ004>006-015-016-023>025-035-036-040600-
   NORTH CENTRAL IOWA

CITY           SKY/WX    TMP DP  RH WIND       PRES   REMARKS
ALGONA *       CLEAR     55  34  44 N15       29.79R
CLARION *      PTCLDY    54  34  47 N15       29.76R
ESTHERVILLE    CLEAR     52  33  48 N16       29.82R
FORT DODGE *   PTCLDY    55  34  44 NW8       29.79S
MASON CITY     PTCLDY    53  35  50 NW13      29.76R
FOREST CITY *  CLEAR     54  32  43 NW13      29.76R
WEBSTER CITY * PTCLDY    55  37  50 NW15      29.75R
IOWA FALLS *     N/A     57  39  51 NW17      29.74R
$$

IAZ007>011-017>019-026>030-037>042-050>054-066-040600-
   NORTHEAST IOWA

CITY           SKY/WX    TMP DP  RH WIND       PRES   REMARKS
CEDAR RAPIDS   HVY RAIN  56  49  77 W17G29    29.66F
CHARLES CITY * CLEAR     55  41  58 NW12      29.71R
CLINTON *      TSTM      54  49  83 W9        29.68F
DECORAH *      MOCLDY    52  46  82 N7        29.70R
DUBUQUE        LGT RAIN  49  48  97 CALM      29.69F
MONTICELLO *   CLOUDY    52  46  82 NE10G18   29.71R
OELWEIN *      PTCLDY    52  46  82 E8        29.68F
$$

IAZ064-065-067-068-078-040600-
   EAST CENTRAL IOWA

CITY           SKY/WX    TMP DP  RH WIND       PRES   REMARKS
DAVENPORT      LGT RAIN  58  44  60 SW16      29.67F
IOWA CITY      CLOUDY    58  45  62 SW12      29.69F
MT. PLEASANT * PTCLDY    59  46  63 SW12      29.74F
MUSCATINE *    CLOUDY    59  45  58 SW16G23   29.70F
QUAD CITIES    CLOUDY    59  42  53 SW13      29.67F
$$

IAZ062-063-075>077-085>089-095>099-040600-
   SOUTHEAST IOWA

CITY           SKY/WX    TMP DP  RH WIND       PRES   REMARKS
BURLINGTON     PTCLDY    57  44  62 SW13      29.73F
FAIRFIELD *    CLOUDY    57  45  62 SW12      29.74F
FORT MADISON * CLEAR     57  45  62 SW10      29.76F
KEOKUK *       CLEAR     57  45  62 SW10G16   29.76F
OSKALOOSA *    CLOUDY    55  48  76 W12       29.74F
OTTUMWA        CLOUDY    56  46  69 SW10      29.74F
WASHINGTON *   CLOUDY    57  46  67 SW17      29.71F
$$

ABBREVIATIONS USED IN REMARKS
   TC - TEMPERATURES IN CELSIUS
  WCI - WIND CHILL INDEX
   HX - HEAT INDEX
  VSB - VISIBILITY
$$





USA.gov is the U.S. government's official web portal to all federal, state and local government web resources and services.